Time,TemperatureF,DewpointF,PressureIn,WindDirection,WindDirectionDegrees,WindSpeedMPH,WindSpeedGustMPH,Humidity,HourlyPrecipIn,Conditions,Clouds,dailyrainin,SolarRadiationWatts/m^2,SoftwareType,DateUTC
2013-03-30 00:02:00,53.0,53.0,-100.00,SE,142,6.0,12.0,100,0.00,,,0.37,0.000000,,2013-03-30 05:02:00,
2013-03-30 00:32:00,53.0,53.0,-100.00,SSE,150,7.0,13.0,100,0.00,,,0.37,0.000000,,2013-03-30 05:32:00,
2013-03-30 00:42:00,53.0,53.0,-100.00,SSE,150,7.0,13.0,100,0.00,,,0.37,0.000000,,2013-03-30 05:42:00,
2013-03-30 00:52:00,53.0,53.0,-100.00,SSE,150,7.0,13.0,100,0.00,,,0.37,0.000000,,2013-03-30 05:52:00,
2013-03-30 01:02:00,53.0,53.0,-100.00,SSE,150,7.0,13.0,100,0.00,,,0.37,0.000000,,2013-03-30 06:02:00,
2013-03-30 01:32:00,52.0,52.0,-100.00,SE,135,8.0,14.0,100,0.00,,,0.37,0.000000,,2013-03-30 06:32:00,
2013-03-30 01:42:00,52.0,52.0,-100.00,SE,135,8.0,14.0,100,0.00,,,0.37,0.000000,,2013-03-30 06:42:00,
2013-03-30 01:52:00,52.0,52.0,-100.00,SE,135,8.0,14.0,100,0.00,,,0.37,0.000000,,2013-03-30 06:52:00,
2013-03-30 02:02:00,52.0,52.0,-100.00,SE,135,8.0,14.0,100,0.00,,,0.37,0.000000,,2013-03-30 07:02:00,
2013-03-30 03:32:00,50.0,50.0,-100.00,SE,144,7.0,19.0,100,-99.99,,,0.41,0.000000,,2013-03-30 08:32:00,
2013-03-30 03:42:00,50.0,50.0,-100.00,SE,144,7.0,19.0,100,-99.99,,,0.41,0.000000,,2013-03-30 08:42:00,
2013-03-30 03:53:00,50.0,50.0,-100.00,SE,144,7.0,19.0,100,-99.99,,,0.41,0.000000,,2013-03-30 08:53:00,
2013-03-30 04:02:00,50.0,50.0,-100.00,SE,144,7.0,19.0,100,-99.99,,,0.41,0.000000,,2013-03-30 09:02:00,
2013-03-30 05:33:00,49.0,49.0,-100.00,ESE,114,9.0,15.0,100,-99.99,,,0.44,0.000000,,2013-03-30 10:33:00,
2013-03-30 05:42:00,49.0,49.0,-100.00,ESE,114,9.0,15.0,100,-99.99,,,0.44,0.000000,,2013-03-30 10:42:00,
2013-03-30 05:52:00,49.0,49.0,-100.00,ESE,114,9.0,15.0,100,-99.99,,,0.44,0.000000,,2013-03-30 10:52:00,
2013-03-30 06:03:00,49.0,49.0,-100.00,ESE,114,9.0,15.0,100,-99.99,,,0.44,0.000000,,2013-03-30 11:03:00,
2013-03-30 06:33:00,49.0,49.0,-100.00,SE,127,8.0,11.0,100,0.00,,,0.43,0.000000,,2013-03-30 11:33:00,
2013-03-30 06:43:00,49.0,49.0,-100.00,SE,127,8.0,11.0,100,0.00,,,0.43,0.000000,,2013-03-30 11:43:00,
2013-03-30 06:53:00,49.0,49.0,-100.00,SE,127,8.0,11.0,100,0.00,,,0.43,0.000000,,2013-03-30 11:53:00,
2013-03-30 07:02:00,49.0,49.0,-100.00,SE,127,8.0,11.0,100,0.00,,,0.43,0.000000,,2013-03-30 12:02:00,
2013-03-30 07:33:00,48.0,48.0,-100.00,SE,133,9.0,14.0,100,0.02,,,0.44,0.000000,,2013-03-30 12:33:00,
2013-03-30 07:42:00,48.0,48.0,-100.00,SE,133,9.0,14.0,100,0.02,,,0.44,0.000000,,2013-03-30 12:42:00,
2013-03-30 07:53:00,48.0,48.0,-100.00,SE,133,9.0,14.0,100,0.02,,,0.44,0.000000,,2013-03-30 12:53:00,
2013-03-30 08:02:00,48.0,48.0,-100.00,SE,133,9.0,14.0,100,0.02,,,0.44,0.000000,,2013-03-30 13:02:00,
2013-03-30 08:32:00,48.0,48.0,-100.00,ESE,121,9.0,16.0,100,0.00,,,0.36,2.000000,,2013-03-30 13:32:00,
2013-03-30 08:43:00,48.0,48.0,-100.00,ESE,121,9.0,16.0,100,0.00,,,0.36,2.000000,,2013-03-30 13:43:00,
2013-03-30 08:52:00,48.0,48.0,-100.00,ESE,121,9.0,16.0,100,0.00,,,0.36,2.000000,,2013-03-30 13:52:00,
2013-03-30 09:02:00,48.0,48.0,-100.00,ESE,121,9.0,16.0,100,0.00,,,0.36,2.000000,,2013-03-30 14:02:00,
2013-03-30 09:33:00,48.0,48.0,-100.00,SE,128,8.0,15.0,100,0.00,,,0.15,9.000000,,2013-03-30 14:33:00,
2013-03-30 09:43:00,48.0,48.0,-100.00,SE,128,8.0,15.0,100,0.00,,,0.15,9.000000,,2013-03-30 14:43:00,
2013-03-30 09:52:00,48.0,48.0,-100.00,SE,128,8.0,15.0,100,0.00,,,0.15,9.000000,,2013-03-30 14:52:00,
2013-03-30 10:02:00,48.0,48.0,-100.00,SE,128,8.0,15.0,100,0.00,,,0.15,9.000000,,2013-03-30 15:02:00,
2013-03-30 10:34:00,49.0,49.0,-100.00,SE,139,7.0,13.0,100,0.00,,,0.13,25.000000,,2013-03-30 15:34:00,
2013-03-30 10:43:00,49.0,49.0,-100.00,SE,139,7.0,13.0,100,0.00,,,0.13,25.000000,,2013-03-30 15:43:00,
2013-03-30 10:53:00,49.0,49.0,-100.00,SE,139,7.0,13.0,100,0.00,,,0.13,25.000000,,2013-03-30 15:53:00,
2013-03-30 11:03:00,49.0,49.0,-100.00,SE,139,7.0,13.0,100,0.00,,,0.13,25.000000,,2013-03-30 16:03:00,
2013-03-30 11:33:00,49.0,49.0,-100.00,NW,323,9.0,16.0,100,0.17,,,0.27,45.000000,,2013-03-30 16:33:00,
2013-03-30 11:43:00,49.0,49.0,-100.00,NW,323,9.0,16.0,100,0.17,,,0.27,45.000000,,2013-03-30 16:43:00,
2013-03-30 11:53:00,49.0,49.0,-100.00,NW,323,9.0,16.0,100,0.17,,,0.27,45.000000,,2013-03-30 16:53:00,
2013-03-30 12:02:00,49.0,49.0,-100.00,NW,323,9.0,16.0,100,0.17,,,0.27,45.000000,,2013-03-30 17:02:00,
2013-03-30 12:33:00,52.0,52.0,-100.00,South,190,3.0,10.0,100,0.11,,,0.37,211.000000,,2013-03-30 17:33:00,
2013-03-30 12:43:00,52.0,52.0,-100.00,South,190,3.0,10.0,100,0.11,,,0.37,211.000000,,2013-03-30 17:43:00,
2013-03-30 12:53:00,52.0,52.0,-100.00,South,190,3.0,10.0,100,0.11,,,0.37,211.000000,,2013-03-30 17:53:00,
2013-03-30 13:03:00,52.0,52.0,-100.00,South,190,3.0,10.0,100,0.11,,,0.37,211.000000,,2013-03-30 18:03:00,
2013-03-30 13:33:00,54.0,54.0,-100.00,SE,124,8.0,15.0,100,0.00,,,0.37,557.000000,,2013-03-30 18:33:00,
2013-03-30 13:43:00,54.0,54.0,-100.00,SE,124,8.0,15.0,100,0.00,,,0.37,557.000000,,2013-03-30 18:43:00,
2013-03-30 13:53:00,54.0,54.0,-100.00,SE,124,8.0,15.0,100,0.00,,,0.37,557.000000,,2013-03-30 18:53:00,
2013-03-30 14:03:00,54.0,54.0,-100.00,SE,124,8.0,15.0,100,0.00,,,0.37,557.000000,,2013-03-30 19:03:00,
2013-03-30 15:33:00,60.0,60.0,-100.00,SW,217,8.0,12.0,99,-99.99,,,0.37,945.000000,,2013-03-30 20:33:00,
2013-03-30 15:43:00,60.0,60.0,-100.00,SW,217,8.0,12.0,99,-99.99,,,0.37,945.000000,,2013-03-30 20:43:00,
2013-03-30 15:53:00,60.0,60.0,-100.00,SW,217,8.0,12.0,99,-99.99,,,0.37,945.000000,,2013-03-30 20:53:00,
2013-03-30 16:02:00,60.0,60.0,-100.00,SW,217,8.0,12.0,99,-99.99,,,0.37,945.000000,,2013-03-30 21:02:00,
2013-03-30 16:34:00,61.0,56.0,-100.00,SSW,211,7.0,12.0,83,0.00,,,0.37,902.000000,,2013-03-30 21:34:00,
2013-03-30 16:43:00,61.0,56.0,-100.00,SSW,211,7.0,12.0,83,0.00,,,0.37,902.000000,,2013-03-30 21:43:00,
2013-03-30 16:53:00,61.0,56.0,-100.00,SSW,211,7.0,12.0,83,0.00,,,0.37,902.000000,,2013-03-30 21:53:00,
2013-03-30 17:03:00,61.0,56.0,-100.00,SSW,211,7.0,12.0,83,0.00,,,0.37,902.000000,,2013-03-30 22:03:00,
2013-03-30 17:33:00,59.0,55.0,-100.00,SSE,166,7.0,13.0,86,0.00,,,0.37,480.000000,,2013-03-30 22:33:00,
2013-03-30 17:43:00,59.0,55.0,-100.00,SSE,166,7.0,13.0,86,0.00,,,0.37,480.000000,,2013-03-30 22:43:00,
2013-03-30 17:53:00,59.0,55.0,-100.00,SSE,166,7.0,13.0,86,0.00,,,0.37,480.000000,,2013-03-30 22:53:00,
2013-03-30 18:02:00,59.0,55.0,-100.00,SSE,166,7.0,13.0,86,0.00,,,0.37,480.000000,,2013-03-30 23:02:00,
2013-03-30 18:33:00,60.0,57.0,-100.00,SSE,164,6.0,12.0,89,0.00,,,0.37,403.000000,,2013-03-30 23:33:00,
2013-03-30 18:43:00,60.0,57.0,-100.00,SSE,164,6.0,12.0,89,0.00,,,0.37,403.000000,,2013-03-30 23:43:00,
2013-03-30 18:53:00,60.0,57.0,-100.00,SSE,164,6.0,12.0,89,0.00,,,0.37,403.000000,,2013-03-30 23:53:00,
2013-03-30 19:02:00,60.0,57.0,-100.00,SSE,164,6.0,12.0,89,0.00,,,0.37,403.000000,,2013-03-31 00:02:00,
2013-03-30 19:33:00,58.0,57.0,-100.00,South,177,6.0,8.0,95,0.00,,,0.37,155.000000,,2013-03-31 00:33:00,
2013-03-30 19:43:00,58.0,57.0,-100.00,South,177,6.0,8.0,95,0.00,,,0.37,155.000000,,2013-03-31 00:43:00,
2013-03-30 19:53:00,58.0,57.0,-100.00,South,177,6.0,8.0,95,0.00,,,0.37,155.000000,,2013-03-31 00:53:00,
2013-03-30 20:02:00,58.0,57.0,-100.00,South,177,6.0,8.0,95,0.00,,,0.37,155.000000,,2013-03-31 01:02:00,
2013-03-30 20:32:00,57.0,57.0,-100.00,SSE,153,1.0,7.0,100,0.00,,,0.37,2.000000,,2013-03-31 01:32:00,
2013-03-30 20:43:00,57.0,57.0,-100.00,SSE,153,1.0,7.0,100,0.00,,,0.37,2.000000,,2013-03-31 01:43:00,
2013-03-30 20:53:00,57.0,57.0,-100.00,SSE,153,1.0,7.0,100,0.00,,,0.37,2.000000,,2013-03-31 01:53:00,
2013-03-30 21:02:00,57.0,57.0,-100.00,SSE,153,1.0,7.0,100,0.00,,,0.37,2.000000,,2013-03-31 02:02:00,
2013-03-30 21:33:00,56.0,56.0,-100.00,SSE,149,5.0,7.0,100,0.00,,,0.37,0.000000,,2013-03-31 02:33:00,
2013-03-30 21:43:00,56.0,56.0,-100.00,SSE,149,5.0,7.0,100,0.00,,,0.37,0.000000,,2013-03-31 02:43:00,
2013-03-30 21:52:00,56.0,56.0,-100.00,SSE,149,5.0,7.0,100,0.00,,,0.37,0.000000,,2013-03-31 02:52:00,
2013-03-30 22:02:00,56.0,56.0,-100.00,SSE,149,5.0,7.0,100,0.00,,,0.37,0.000000,,2013-03-31 03:02:00,
2013-03-30 22:33:00,55.0,55.0,-100.00,SSE,165,8.0,9.0,100,0.00,,,0.37,0.000000,,2013-03-31 03:33:00,
2013-03-30 22:44:00,55.0,55.0,-100.00,SSE,165,8.0,9.0,100,0.00,,,0.37,0.000000,,2013-03-31 03:44:00,
2013-03-30 22:54:00,55.0,55.0,-100.00,SSE,165,8.0,9.0,100,0.00,,,0.37,0.000000,,2013-03-31 03:54:00,
2013-03-30 23:03:00,55.0,-99.9,-100.00,SSE,165,8.0,9.0,100,0.00,,,0.37,0.000000,,2013-03-31 04:03:00,
2013-03-30 23:33:00,55.0,55.0,-100.00,South,177,8.0,11.0,100,0.00,,,0.37,0.000000,,2013-03-31 04:33:00,
2013-03-30 23:42:00,55.0,55.0,-100.00,South,177,8.0,11.0,100,0.00,,,0.37,0.000000,,2013-03-31 04:42:00,
2013-03-30 23:53:00,55.0,55.0,-100.00,South,177,8.0,11.0,100,0.00,,,0.37,0.000000,,2013-03-31 04:53:00,